Weather History for KADW - October, 2013

Change the Weather History Date:

Sunday, October 27, 2013

  Actual Average Record
Temperature  
Mean Temperature 48 °F -  
Max Temperature 60 °F 60 °F 75 °F (2010)
Min Temperature 35 °F 41 °F 35 °F (2013)
Degree Days  
Heating Degree Days 18    
Moisture  
Dew Point 34 °F    
Average Humidity 59    
Maximum Humidity 89    
Minimum Humidity 38    
Precipitation  
Precipitation 0.00 in - - ()
Sea Level Pressure  
Sea Level Pressure 30.07 in    
Wind  
Wind Speed 6 mph (West)    
Max Wind Speed 12 mph    
Max Gust Speed 20 mph    
Visibility 10 miles    
Events      
Averages and records for this station are not official NWS values.
T = Trace of Precipitation, MM = Missing Value Source: NWS Daily Summary

Daily Weather History Graph

Daily Weather History Graph

Search for Another Location

Airport or City:

Trip Planner

Search our weather history database for the weather conditions in past years. The results will help you decide how hot, cold, wet, or windy it might be!

Date:

Astronomy

Oct. 27, 2013 Rise Set
Actual Time 7:29 AM EDT 6:12 PM EDT
Civil Twilight 7:02 AM EDT 6:39 PM EDT
Nautical Twilight 6:30 AM EDT 7:11 PM EDT
Astronomical Twilight 5:59 AM EDT 7:42 PM EDT
Moon 12:28 AM EDT (10/27) 2:16 PM EDT (10/27)
Length of Visible Light 11h 37m
Length of Day
10h 43m
Last Quarter, 44% of the Moon is Illuminated
Oct 27
Last Quarter
Nov 3
New
Nov 10
First Quarter
Nov 17
Full
Nov 25
Last Quarter

Hourly Weather History & Observations

Time (EDT) Temp. Windchill Dew Point Humidity Pressure Visibility Wind Dir Wind Speed Gust Speed Precip Events Conditions
12:58 AM 51.1 °F - 32.2 °F 48% 29.99 in 10.0 mi WSW 11.5 mph - N/A   Mostly Cloudy
1:58 AM 50.0 °F - 31.3 °F 49% 30.00 in 10.0 mi WSW 5.8 mph - N/A   Scattered Clouds
2:58 AM 45.9 °F 44.6 °F 32.4 °F 59% 30.00 in 10.0 mi West 3.5 mph - N/A   Clear
3:58 AM 41.7 °F 39.8 °F 32.5 °F 70% 30.01 in 10.0 mi SW 3.5 mph - N/A   Clear
4:58 AM 41.4 °F 39.4 °F 33.4 °F 73% 30.01 in 10.0 mi WSW 3.5 mph - N/A   Scattered Clouds
5:58 AM 43.5 °F - 32.9 °F 66% 30.04 in 10.0 mi West 2.3 mph - N/A   Partly Cloudy
6:58 AM 35.4 °F 32.6 °F 32.5 °F 89% 30.05 in 10.0 mi South 3.5 mph - N/A   Clear
7:58 AM 38.5 °F 35.0 °F 34.2 °F 84% 30.07 in 10.0 mi West 4.6 mph - N/A   Clear
8:58 AM 48.7 °F - 35.6 °F 60% 30.09 in 10.0 mi West 4.6 mph - N/A   Clear
9:58 AM 50.9 °F - 35.6 °F 56% 30.10 in 10.0 mi WNW 5.8 mph - N/A   Partly Cloudy
10:58 AM 52.5 °F - 34.7 °F 51% 30.09 in 10.0 mi WNW 5.8 mph - N/A   Scattered Clouds
11:58 AM 55.4 °F - 34.9 °F 46% 30.10 in 10.0 mi NW 9.2 mph - N/A   Partly Cloudy
12:58 PM 57.6 °F - 34.5 °F 42% 30.07 in 10.0 mi West 9.2 mph - N/A   Clear
1:58 PM 59.2 °F - 34.0 °F 39% 30.05 in 10.0 mi West 11.5 mph 19.6 mph N/A   Clear
2:58 PM 59.7 °F - 33.8 °F 38% 30.05 in 10.0 mi WNW 11.5 mph - N/A   Clear
3:58 PM 60.3 °F - 34.2 °F 38% 30.05 in 10.0 mi West 9.2 mph - N/A   Clear
4:58 PM 58.5 °F - 33.6 °F 39% 30.07 in 10.0 mi NW 9.2 mph - N/A   Clear
5:58 PM 56.5 °F - 34.2 °F 43% 30.09 in 10.0 mi NNW 4.6 mph - N/A   Clear
6:58 PM 48.2 °F - 37.9 °F 68% 30.10 in 10.0 mi ESE 2.3 mph - N/A   Clear
7:58 PM 44.8 °F - 37.9 °F 77% 30.13 in 10.0 mi South 2.3 mph - N/A   Clear
8:58 PM 43.0 °F - 36.5 °F 78% 30.15 in 10.0 mi Calm Calm - N/A   Clear
9:58 PM 40.8 °F - 34.7 °F 79% 30.16 in 10.0 mi North 2.3 mph - N/A   Clear